User: anonymous   Login
Location: アルンシュタイン
(50.0000°N, 10.0000°E)
Time: 05:35:46
(UTC+01:00)
Language:

Envisat - Orbit

View from above orbital plane
View from above orbital plane
View from above satellite
View from above satellite

Ground track
Ground track

The orbit data is extracted from the following two-line orbital elements,

1 27386U 02009A   21338.91618098  .00000052  00000-0  30565-4 0  9996
2 27386  98.1638 324.3919 0001312  88.5375 328.3092 14.38058461 35507
Epoch (UTC): 04 December 2021 21:59:18
Eccentricity: 0.0001312
inclination: 98.1638°
perigee height: 764 km
apogee height: 766 km
right ascension of ascending node: 324.3919°
argument of perigee: 88.5375°
revolutions per day: 14.38058461
mean anomaly at epoch: 328.3092°
orbit number at epoch: 3550

The dashed part of the orbit path shows where the satellite is in the earth's shadow,  

DLR